AFR92ZN LFPG-EDDB

Flight info

Callsign AFR92ZN
Flight time 1h 29m
Altitude 37000
Route RANUX DCT VALEK DCT LIPNI DCT LIMGO DCT MASEK T278 KLF KLF1R
Aircraft A320/M-SDE3FGHIRWY/LB1

Departure

Time 2026-05-01 11:19
Airport Charles de Gaulle International Airport (LFPG)

Arrival

Time 2026-05-01 12:48
Airport Berlin Brandenburg Airport (EDDB)
Time Latitude Longitude Altitude Speed Heading
2026-05-01 10:44 49.00669 2.57761 362 ft 0 kts 121°
2026-05-01 11:06 49.00678 2.57739 362 ft 3 kts 129°
2026-05-01 11:06 49.00691 2.57715 364 ft 3 kts 123°
2026-05-01 11:06 49.00700 2.57693 358 ft 3 kts 96°
2026-05-01 11:07 49.00681 2.57674 360 ft 3 kts 356°
2026-05-01 11:07 49.00662 2.57675 358 ft 1 kts 355°
2026-05-01 11:07 49.00661 2.57676 357 ft 0 kts 355°
2026-05-01 11:09 49.00670 2.57673 360 ft 5 kts 349°
2026-05-01 11:10 49.00800 2.57594 354 ft 9 kts 320°
2026-05-01 11:10 49.00853 2.57565 354 ft 7 kts 349°
2026-05-01 11:10 49.00874 2.57508 361 ft 8 kts 274°
2026-05-01 11:10 49.00868 2.57375 354 ft 16 kts 265°
2026-05-01 11:11 49.00855 2.57169 360 ft 21 kts 265°
2026-05-01 11:11 49.00844 2.56933 354 ft 23 kts 265°
2026-05-01 11:11 49.00838 2.56827 354 ft 24 kts 265°
2026-05-01 11:12 49.00824 2.56558 359 ft 27 kts 264°
2026-05-01 11:12 49.00799 2.56266 354 ft 29 kts 262°
2026-05-01 11:12 49.00769 2.55956 354 ft 30 kts 261°
2026-05-01 11:12 49.00740 2.55630 356 ft 31 kts 263°
2026-05-01 11:13 49.00722 2.55378 359 ft 18 kts 261°
2026-05-01 11:13 49.00706 2.55227 356 ft 14 kts 331°
2026-05-01 11:13 49.00817 2.55168 357 ft 24 kts 345°
2026-05-01 11:13 49.01005 2.55085 358 ft 29 kts 344°
2026-05-01 11:14 49.01200 2.55001 354 ft 29 kts 344°
2026-05-01 11:14 49.01392 2.54921 354 ft 26 kts 346°
2026-05-01 11:14 49.01569 2.54888 354 ft 26 kts 355°
2026-05-01 11:14 49.01750 2.54864 354 ft 25 kts 355°
2026-05-01 11:15 49.01889 2.54848 354 ft 13 kts 356°
2026-05-01 11:15 49.01932 2.54784 360 ft 8 kts 274°
2026-05-01 11:15 49.01928 2.54674 358 ft 13 kts 265°
2026-05-01 11:15 49.01918 2.54499 357 ft 20 kts 265°
2026-05-01 11:16 49.01908 2.54266 354 ft 24 kts 266°
2026-05-01 11:16 49.01893 2.53997 356 ft 27 kts 265°
2026-05-01 11:16 49.01877 2.53699 358 ft 19 kts 265°
2026-05-01 11:16 49.01865 2.53495 354 ft 21 kts 264°
2026-05-01 11:17 49.01848 2.53255 355 ft 24 kts 267°
2026-05-01 11:17 49.01864 2.53049 357 ft 16 kts 325°
2026-05-01 11:17 49.01986 2.53030 354 ft 20 kts 353°
2026-05-01 11:17 49.02104 2.53017 354 ft 15 kts
2026-05-01 11:18 49.02161 2.53137 355 ft 18 kts 88°
2026-05-01 11:18 49.02182 2.53504 355 ft 64 kts 85°
2026-05-01 11:18 49.02239 2.54526 355 ft 127 kts 85°
2026-05-01 11:18 49.02327 2.56129 400 ft 170 kts 85°
2026-05-01 11:19 49.02425 2.57889 1079 ft 166 kts 86°
2026-05-01 11:19 49.02522 2.59651 1722 ft 167 kts 86°
2026-05-01 11:19 49.02620 2.61425 2349 ft 173 kts 86°
2026-05-01 11:19 49.02717 2.63265 2925 ft 175 kts 87°
2026-05-01 11:20 49.02821 2.65113 3553 ft 176 kts 87°
2026-05-01 11:20 49.02918 2.67078 3865 ft 197 kts 88°
2026-05-01 11:20 49.03026 2.69278 4143 ft 219 kts 87°
2026-05-01 11:20 49.03148 2.71702 4473 ft 240 kts 87°
2026-05-01 11:21 49.03278 2.74363 4830 ft 263 kts 88°
2026-05-01 11:21 49.03413 2.77197 5508 ft 272 kts 88°
2026-05-01 11:21 49.03550 2.80096 6365 ft 276 kts 88°
2026-05-01 11:21 49.03688 2.83029 7189 ft 279 kts 88°
2026-05-01 11:22 49.03824 2.85957 8039 ft 281 kts 88°
2026-05-01 11:22 49.03965 2.88936 8896 ft 283 kts 88°
2026-05-01 11:22 49.04109 2.91949 9766 ft 285 kts 87°
2026-05-01 11:22 49.04273 2.94983 10533 ft 290 kts 86°
2026-05-01 11:23 49.04490 2.98162 10795 ft 313 kts 85°
2026-05-01 11:23 49.04745 3.01538 10965 ft 336 kts 85°
2026-05-01 11:23 49.05032 3.05202 11102 ft 359 kts 85°
2026-05-01 11:23 49.05334 3.09089 11222 ft 379 kts 85°
2026-05-01 11:24 49.05647 3.13186 11466 ft 394 kts 85°
2026-05-01 11:24 49.05960 3.17364 12006 ft 399 kts 85°
2026-05-01 11:24 49.06576 3.25848 13277 ft 405 kts 86°
2026-05-01 11:25 49.06873 3.30073 13876 ft 407 kts 86°
2026-05-01 11:25 49.07475 3.38743 14938 ft 413 kts 86°
2026-05-01 11:25 49.07780 3.43118 15419 ft 416 kts 86°
2026-05-01 11:26 49.08084 3.47536 15890 ft 419 kts 86°
2026-05-01 11:26 49.08694 3.56417 16763 ft 426 kts 86°
2026-05-01 11:26 49.09007 3.60932 17189 ft 429 kts 86°
2026-05-01 11:27 49.09321 3.65487 17619 ft 433 kts 86°
2026-05-01 11:27 49.09634 3.70075 18034 ft 436 kts 86°
2026-05-01 11:27 49.09947 3.74698 18447 ft 439 kts 86°
2026-05-01 11:27 49.10257 3.79351 18820 ft 441 kts 86°
2026-05-01 11:28 49.10566 3.84028 19187 ft 443 kts 86°
2026-05-01 11:28 49.10872 3.88717 19542 ft 444 kts 86°
2026-05-01 11:28 49.11176 3.93413 19899 ft 446 kts 86°
2026-05-01 11:29 49.11788 4.02815 20543 ft 449 kts 86°
2026-05-01 11:29 49.12092 4.07552 20855 ft 450 kts 86°
2026-05-01 11:29 49.12697 4.17123 21457 ft 453 kts 87°
2026-05-01 11:30 49.12997 4.21914 21747 ft 454 kts 87°
2026-05-01 11:30 49.13290 4.26666 22023 ft 455 kts 87°
2026-05-01 11:30 49.13590 4.31493 22304 ft 456 kts 86°
2026-05-01 11:30 49.14144 4.36283 22563 ft 461 kts 78°
2026-05-01 11:31 49.15179 4.40946 22813 ft 465 kts 70°
2026-05-01 11:31 49.16435 4.45512 23043 ft 466 kts 69°
2026-05-01 11:31 49.17688 4.50101 23270 ft 467 kts 70°
2026-05-01 11:31 49.18919 4.54650 23505 ft 469 kts 70°
2026-05-01 11:32 49.20161 4.59265 23724 ft 470 kts 70°
2026-05-01 11:32 49.21402 4.63880 23999 ft 469 kts 70°
2026-05-01 11:32 49.22641 4.68489 24262 ft 468 kts 70°
2026-05-01 11:32 49.23881 4.73092 24526 ft 467 kts 70°
2026-05-01 11:33 49.25122 4.77699 24793 ft 466 kts 70°
2026-05-01 11:33 49.26354 4.82292 25071 ft 465 kts 70°
2026-05-01 11:33 49.27562 4.86817 25337 ft 464 kts 70°
2026-05-01 11:33 49.28784 4.91403 25636 ft 463 kts 69°
2026-05-01 11:34 49.30000 4.95979 25920 ft 463 kts 69°
2026-05-01 11:34 49.31212 5.00550 26215 ft 462 kts 69°
2026-05-01 11:34 49.32421 5.05113 26505 ft 461 kts 69°
2026-05-01 11:34 49.33631 5.09682 26801 ft 460 kts 69°
2026-05-01 11:35 49.34819 5.14176 27088 ft 460 kts 69°
2026-05-01 11:35 49.36019 5.18723 27403 ft 459 kts 70°
2026-05-01 11:35 49.37214 5.23268 27718 ft 457 kts 70°
2026-05-01 11:35 49.38405 5.27791 28025 ft 457 kts 70°
2026-05-01 11:36 49.39594 5.32322 28315 ft 457 kts 70°
2026-05-01 11:36 49.40779 5.36849 28631 ft 456 kts 69°
2026-05-01 11:36 49.41957 5.41366 28963 ft 455 kts 69°
2026-05-01 11:36 49.43114 5.45821 29305 ft 453 kts 69°
2026-05-01 11:37 49.44280 5.50327 29633 ft 453 kts 69°
2026-05-01 11:37 49.45442 5.54815 29967 ft 452 kts 70°
2026-05-01 11:37 49.46607 5.59311 30278 ft 451 kts 70°
2026-05-01 11:37 49.47766 5.63802 30578 ft 450 kts 69°
2026-05-01 11:38 49.48918 5.68275 30823 ft 450 kts 70°
2026-05-01 11:38 49.50070 5.72768 31098 ft 450 kts 69°
2026-05-01 11:38 49.51203 5.77192 31352 ft 450 kts 70°
2026-05-01 11:38 49.52336 5.81671 31614 ft 449 kts 71°
2026-05-01 11:39 49.53440 5.86174 31856 ft 449 kts 70°
2026-05-01 11:39 49.54534 5.90679 32140 ft 448 kts 71°
2026-05-01 11:39 49.55629 5.95177 32396 ft 448 kts 70°
2026-05-01 11:39 49.56730 5.99675 32646 ft 448 kts 71°
2026-05-01 11:40 49.57834 6.04169 32897 ft 448 kts 70°
2026-05-01 11:40 49.58943 6.08666 33143 ft 448 kts 70°
2026-05-01 11:40 49.60039 6.13108 33380 ft 449 kts 71°
2026-05-01 11:40 49.61149 6.17615 33618 ft 449 kts 71°
2026-05-01 11:41 49.62253 6.22130 33872 ft 449 kts 70°
2026-05-01 11:41 49.63358 6.26639 34105 ft 449 kts 69°
2026-05-01 11:41 49.64711 6.30998 34347 ft 451 kts 61°
2026-05-01 11:41 49.66190 6.35204 34588 ft 450 kts 62°
2026-05-01 11:42 49.67684 6.39455 34825 ft 449 kts 62°
2026-05-01 11:42 49.69172 6.43698 35045 ft 448 kts 63°
2026-05-01 11:42 49.70655 6.47940 35236 ft 449 kts 62°
2026-05-01 11:43 49.73614 6.56445 35294 ft 456 kts 62°
2026-05-01 11:43 49.76627 6.65135 35293 ft 459 kts 62°
2026-05-01 11:44 49.81139 6.78224 35291 ft 459 kts 62°
2026-05-01 11:44 49.84139 6.86948 35291 ft 458 kts 62°
2026-05-01 11:45 49.87119 6.95631 35317 ft 458 kts 62°
2026-05-01 11:45 49.90102 7.04380 35319 ft 458 kts 62°
2026-05-01 11:46 49.93084 7.13133 35361 ft 459 kts 62°
2026-05-01 11:46 49.96063 7.21900 35362 ft 459 kts 62°
2026-05-01 11:47 49.99018 7.30633 35370 ft 459 kts 62°
2026-05-01 11:47 50.01975 7.39414 35372 ft 458 kts 62°
2026-05-01 11:48 50.04925 7.48205 35368 ft 457 kts 62°
2026-05-01 11:48 50.07365 7.55508 35361 ft 457 kts 62°
2026-05-01 11:49 50.10779 7.65738 35362 ft 457 kts 62°
2026-05-01 11:49 50.13703 7.74539 35362 ft 457 kts 62°
2026-05-01 11:50 50.16129 7.81873 35371 ft 457 kts 62°
2026-05-01 11:50 50.19039 7.90683 35371 ft 456 kts 61°
2026-05-01 11:51 50.21928 7.99462 35372 ft 455 kts 61°
2026-05-01 11:51 50.24802 8.08229 35372 ft 455 kts 62°
2026-05-01 11:52 50.27700 8.17100 35367 ft 455 kts 62°
2026-05-01 11:52 50.30556 8.25862 35368 ft 455 kts 61°
2026-05-01 11:53 50.33417 8.34701 35379 ft 455 kts 62°
2026-05-01 11:53 50.36270 8.43538 35378 ft 454 kts 61°
2026-05-01 11:54 50.39123 8.52391 35376 ft 454 kts 61°
2026-05-01 11:54 50.41962 8.61241 35372 ft 454 kts 62°
2026-05-01 11:55 50.44780 8.70045 35369 ft 454 kts 61°
2026-05-01 11:55 50.47604 8.78925 35370 ft 454 kts 62°
2026-05-01 11:56 50.50428 8.87827 35368 ft 454 kts 62°
2026-05-01 11:56 50.53245 8.96715 35382 ft 455 kts 62°
2026-05-01 11:57 50.56066 9.05640 35377 ft 455 kts 63°
2026-05-01 11:57 50.58854 9.14533 35379 ft 455 kts 62°
2026-05-01 11:58 50.61655 9.23487 35385 ft 456 kts 63°
2026-05-01 11:59 50.65846 9.36947 35393 ft 455 kts 62°
2026-05-01 11:59 50.68631 9.45913 35400 ft 454 kts 63°
2026-05-01 12:00 50.72542 9.59469 35402 ft 455 kts 72°
2026-05-01 12:01 50.73984 9.74355 35404 ft 457 kts 82°
2026-05-01 12:01 50.74705 9.84275 35406 ft 457 kts 82°
2026-05-01 12:02 50.75428 9.94259 35411 ft 457 kts 82°
2026-05-01 12:02 50.76140 10.04223 35413 ft 456 kts 81°
2026-05-01 12:03 50.76837 10.14183 35411 ft 456 kts 82°
2026-05-01 12:03 50.77524 10.24088 35416 ft 455 kts 82°
2026-05-01 12:04 50.78210 10.34050 35408 ft 455 kts 82°
2026-05-01 12:04 50.78874 10.44014 35410 ft 455 kts 83°
2026-05-01 12:05 50.79534 10.53929 35410 ft 455 kts 82°
2026-05-01 12:05 50.80568 10.68874 35414 ft 454 kts 78°
2026-05-01 12:06 50.82557 10.78240 35415 ft 451 kts 60°
2026-05-01 12:06 50.85530 10.86989 35423 ft 451 kts 60°
2026-05-01 12:07 50.88479 10.95747 35428 ft 450 kts 61°
2026-05-01 12:07 50.91420 11.04528 35429 ft 450 kts 61°
2026-05-01 12:08 50.94327 11.13237 35428 ft 449 kts 61°
2026-05-01 12:08 50.97250 11.22013 35427 ft 449 kts 61°
2026-05-01 12:09 51.00171 11.30790 35425 ft 449 kts 61°
2026-05-01 12:09 51.03085 11.39577 35427 ft 449 kts 61°
2026-05-01 12:10 51.07406 11.52700 35439 ft 447 kts 61°
2026-05-01 12:11 51.11717 11.65883 35437 ft 446 kts 61°
2026-05-01 12:11 51.14563 11.74613 35438 ft 446 kts 61°
2026-05-01 12:12 51.17422 11.83401 35433 ft 446 kts 61°
2026-05-01 12:12 51.20300 11.92192 35431 ft 445 kts 58°
2026-05-01 12:13 51.24128 11.99828 35441 ft 443 kts 45°
2026-05-01 12:13 51.28385 12.06943 35438 ft 443 kts 45°
2026-05-01 12:14 51.32625 12.14091 35431 ft 442 kts 46°
2026-05-01 12:14 51.36853 12.21263 35453 ft 442 kts 46°
2026-05-01 12:15 51.41085 12.28423 35448 ft 442 kts 46°
2026-05-01 12:15 51.45289 12.35552 35445 ft 442 kts 46°
2026-05-01 12:16 51.49510 12.42759 35441 ft 443 kts 46°
2026-05-01 12:16 51.53726 12.49982 35435 ft 443 kts 46°
2026-05-01 12:17 51.57924 12.57178 35172 ft 432 kts 46°
2026-05-01 12:17 51.59949 12.60653 35000 ft 419 kts 46°
2026-05-01 12:17 51.61900 12.64012 34631 ft 412 kts 46°
2026-05-01 12:18 51.63843 12.67361 34210 ft 407 kts 46°
2026-05-01 12:18 51.65766 12.70681 33710 ft 402 kts 46°
2026-05-01 12:18 51.67661 12.73960 33209 ft 398 kts 46°
2026-05-01 12:18 51.69547 12.77227 32715 ft 395 kts 46°
2026-05-01 12:19 51.71413 12.80464 32234 ft 392 kts 46°
2026-05-01 12:19 51.73263 12.83676 31756 ft 389 kts 46°
2026-05-01 12:19 51.75094 12.86860 31278 ft 386 kts 46°
2026-05-01 12:19 51.76913 12.90026 30830 ft 383 kts 47°
2026-05-01 12:20 51.78501 12.93385 30379 ft 380 kts 57°
2026-05-01 12:20 51.79871 12.97033 29715 ft 375 kts 58°
2026-05-01 12:20 51.81217 13.00621 28865 ft 370 kts 58°
2026-05-01 12:20 51.82545 13.04151 28061 ft 365 kts 58°
2026-05-01 12:21 51.83856 13.07637 27298 ft 360 kts 58°
2026-05-01 12:21 51.85145 13.11074 26551 ft 354 kts 58°
2026-05-01 12:21 51.86413 13.14468 25829 ft 349 kts 58°
2026-05-01 12:21 51.87644 13.17772 25119 ft 345 kts 59°
2026-05-01 12:22 51.88873 13.21074 24407 ft 340 kts 59°
2026-05-01 12:22 51.90090 13.24338 23680 ft 335 kts 59°
2026-05-01 12:22 51.91289 13.27561 22871 ft 331 kts 59°
2026-05-01 12:22 51.92468 13.30732 22163 ft 326 kts 59°
2026-05-01 12:23 51.93616 13.33823 21454 ft 321 kts 59°
2026-05-01 12:23 51.94760 13.36907 20737 ft 318 kts 59°
2026-05-01 12:23 51.95889 13.39958 20046 ft 314 kts 59°
2026-05-01 12:23 51.97008 13.42991 19362 ft 311 kts 59°
2026-05-01 12:24 51.98122 13.46001 18690 ft 308 kts 57°
2026-05-01 12:24 51.99522 13.48524 17981 ft 305 kts 36°
2026-05-01 12:24 52.01456 13.49910 17272 ft 307 kts 13°
2026-05-01 12:24 52.03598 13.49835 16572 ft 313 kts 348°
2026-05-01 12:25 52.05553 13.48239 15892 ft 321 kts 323°
2026-05-01 12:25 52.08449 13.42677 14522 ft 325 kts 310°
2026-05-01 12:25 52.09793 13.39726 13851 ft 323 kts 310°
2026-05-01 12:26 52.11130 13.36744 13245 ft 318 kts 309°
2026-05-01 12:26 52.13586 13.31297 12766 ft 288 kts 309°
2026-05-01 12:26 52.14771 13.28710 12435 ft 279 kts 310°
2026-05-01 12:27 52.15938 13.26182 12400 ft 279 kts 310°
2026-05-01 12:27 52.18095 13.20927 12404 ft 283 kts 290°
2026-05-01 12:28 52.17923 13.14681 12315 ft 285 kts 248°
2026-05-01 12:28 52.17201 13.11666 11770 ft 285 kts 247°
2026-05-01 12:28 52.15738 13.05695 10781 ft 281 kts 247°
2026-05-01 12:29 52.15016 13.02748 10282 ft 278 kts 247°
2026-05-01 12:29 52.14303 12.99833 9730 ft 275 kts 248°
2026-05-01 12:29 52.12909 12.94134 8657 ft 270 kts 248°
2026-05-01 12:30 52.11521 12.88512 7442 ft 268 kts 243°
2026-05-01 12:30 52.10302 12.86251 7221 ft 274 kts 210°
2026-05-01 12:30 52.08503 12.85213 7331 ft 277 kts 182°
2026-05-01 12:31 52.06622 12.85630 7387 ft 274 kts 154°
2026-05-01 12:31 52.05547 12.86667 7398 ft 270 kts 136°
2026-05-01 12:31 52.04293 12.90016 7401 ft 262 kts 101°
2026-05-01 12:31 52.04130 12.92849 7448 ft 242 kts 92°
2026-05-01 12:32 52.04044 12.95541 7780 ft 237 kts 92°
2026-05-01 12:32 52.03900 12.99981 9278 ft 237 kts 92°
2026-05-01 12:32 52.03810 13.02672 10072 ft 242 kts 92°
2026-05-01 12:33 52.03718 13.05425 10326 ft 243 kts 92°
2026-05-01 12:33 52.03629 13.08168 10382 ft 243 kts 92°
2026-05-01 12:33 52.03540 13.10904 10391 ft 243 kts 92°
2026-05-01 12:33 52.03445 13.13777 10401 ft 276 kts 92°
2026-05-01 12:34 52.03335 13.17072 10395 ft 303 kts 92°
2026-05-01 12:34 52.03217 13.20541 10394 ft 310 kts 92°
2026-05-01 12:34 52.03097 13.24048 10401 ft 311 kts 92°
2026-05-01 12:34 52.02975 13.27551 10399 ft 311 kts 92°
2026-05-01 12:35 52.02851 13.31058 10402 ft 311 kts 92°
2026-05-01 12:35 52.02725 13.34573 10405 ft 311 kts 92°
2026-05-01 12:35 52.02596 13.38081 10400 ft 311 kts 92°
2026-05-01 12:35 52.02468 13.41592 10400 ft 311 kts 92°
2026-05-01 12:36 52.02342 13.45056 10402 ft 311 kts 92°
2026-05-01 12:36 52.02326 13.48555 10403 ft 310 kts 84°
2026-05-01 12:36 52.02698 13.52002 10404 ft 310 kts 74°
2026-05-01 12:36 52.03452 13.55274 10390 ft 310 kts 64°
2026-05-01 12:37 52.04557 13.58281 10399 ft 310 kts 54°
2026-05-01 12:37 52.05977 13.60924 10401 ft 311 kts 45°
2026-05-01 12:37 52.07677 13.63127 10402 ft 313 kts 37°
2026-05-01 12:37 52.09412 13.65159 10377 ft 299 kts 38°
2026-05-01 12:38 52.11055 13.67095 10179 ft 282 kts 38°
2026-05-01 12:38 52.12603 13.68931 9639 ft 275 kts 38°
2026-05-01 12:38 52.14132 13.70747 9169 ft 265 kts 38°
2026-05-01 12:38 52.15571 13.72454 8953 ft 248 kts 38°
2026-05-01 12:39 52.16949 13.74092 8465 ft 242 kts 38°
2026-05-01 12:39 52.18304 13.75707 7915 ft 240 kts 38°
2026-05-01 12:39 52.19644 13.77311 7415 ft 239 kts 38°
2026-05-01 12:39 52.20980 13.78912 7091 ft 236 kts 38°
2026-05-01 12:40 52.22281 13.80465 6941 ft 227 kts 37°
2026-05-01 12:40 52.23535 13.81959 6832 ft 225 kts 37°
2026-05-01 12:40 52.24800 13.83467 6731 ft 225 kts 38°
2026-05-01 12:40 52.26073 13.84973 6588 ft 230 kts 35°
2026-05-01 12:41 52.27571 13.85856 6324 ft 234 kts
2026-05-01 12:41 52.29183 13.85439 6076 ft 236 kts 351°
2026-05-01 12:41 52.30814 13.85037 5835 ft 236 kts 356°
2026-05-01 12:41 52.32449 13.84793 5594 ft 235 kts 357°
2026-05-01 12:42 52.34079 13.84578 5351 ft 234 kts 357°
2026-05-01 12:42 52.35675 13.84359 5099 ft 233 kts 356°
2026-05-01 12:42 52.37305 13.84117 4656 ft 240 kts 356°
2026-05-01 12:42 52.38956 13.83857 4264 ft 233 kts 356°
2026-05-01 12:43 52.40518 13.83589 3997 ft 221 kts 352°
2026-05-01 12:43 52.41884 13.82571 3816 ft 219 kts 311°
2026-05-01 12:43 52.42440 13.80349 3772 ft 217 kts 271°
2026-05-01 12:43 52.41999 13.78017 3478 ft 218 kts 242°
2026-05-01 12:44 52.41348 13.75757 3172 ft 219 kts 250°
2026-05-01 12:44 52.40801 13.73423 2872 ft 219 kts 251°
2026-05-01 12:44 52.39789 13.69083 2355 ft 188 kts 250°
2026-05-01 12:45 52.38900 13.65300 1856 ft 168 kts 251°
2026-05-01 12:45 52.38493 13.63566 1636 ft 157 kts 250°
2026-05-01 12:45 52.38115 13.61959 1450 ft 148 kts 250°
2026-05-01 12:46 52.37754 13.60406 1231 ft 143 kts 250°
2026-05-01 12:46 52.37395 13.58885 1048 ft 143 kts 251°
2026-05-01 12:46 52.37031 13.57372 845 ft 142 kts 250°
2026-05-01 12:46 52.36677 13.55860 658 ft 141 kts 250°
2026-05-01 12:47 52.36324 13.54375 455 ft 139 kts 250°
2026-05-01 12:47 52.35982 13.52910 273 ft 138 kts 251°
2026-05-01 12:47 52.35640 13.51466 156 ft 126 kts 249°
2026-05-01 12:47 52.35379 13.50367 157 ft 79 kts 249°
2026-05-01 12:48 52.35246 13.49800 154 ft 35 kts 250°
2026-05-01 12:48 52.35235 13.49466 154 ft 23 kts 279°
2026-05-01 12:48 52.35262 13.49267 154 ft 13 kts 305°
2026-05-01 12:48 52.35343 13.49203 154 ft 13 kts 338°
2026-05-01 12:49 52.35423 13.49189 154 ft 11 kts 34°
2026-05-01 12:49 52.35459 13.49303 154 ft 14 kts 69°
2026-05-01 12:49 52.35493 13.49446 154 ft 14 kts 69°
2026-05-01 12:49 52.35542 13.49649 154 ft 24 kts 68°
2026-05-01 12:50 52.35607 13.49925 154 ft 27 kts 69°
2026-05-01 12:50 52.35678 13.50219 154 ft 27 kts 69°
2026-05-01 12:50 52.35744 13.50503 154 ft 26 kts 69°
2026-05-01 12:50 52.35797 13.50737 154 ft 13 kts 68°
2026-05-01 12:51 52.35863 13.50768 154 ft 11 kts 340°
2026-05-01 12:51 52.35939 13.50719 154 ft 13 kts 338°
2026-05-01 12:51 52.36103 13.50631 154 ft 7 kts 25°
2026-05-01 12:52 52.36125 13.50696 154 ft 6 kts 69°
2026-05-01 12:52 52.36138 13.50751 155 ft 0 kts 70°